Location: Unspecified
(0.0000°N, 0.0000°E)
Time: 08:55:46
(UTC+02:00)

USA 116 - Visible Passes

Search period start: 02 September 2014 00:00
Search period end: 12 September 2014 00:00
Orbit: 405 x 834 km, 97.9° (Epoch: 18 November)

Date Brightness Start Highest point End Pass type
(mag) Time Alt. Az. Time Alt. Az. Time Alt. Az.
02 Sep 4.5 06:04:56 10° SSE 06:10:04 69° ENE 06:14:41 10° N visible
03 Sep 4.1 06:19:40 10° S 06:24:47 77° WSW 06:29:23 10° NNW visible
04 Sep 4.4 06:34:36 10° S 06:39:29 48° WSW 06:43:53 10° NNW visible
05 Sep 7.1 05:15:59 10° ESE 05:18:24 14° E 05:20:42 10° NE visible
05 Sep 4.9 06:49:46 10° SSW 06:54:09 31° WSW 06:58:09 10° NW visible
06 Sep 6.5 05:29:31 10° SE 05:33:10 21° E 05:36:32 10° NNE visible
06 Sep 5.4 07:05:16 10° SSW 07:08:47 20° WSW 07:12:04 10° WNW visible
07 Sep 5.7 05:43:36 10° SE 05:47:56 33° E 05:51:50 10° NNE visible
07 Sep 5.9 07:21:29 10° SW 07:23:24 12° WSW 07:25:15 10° W visible
08 Sep 4.8 05:57:59 10° SSE 06:02:42 52° E 06:06:51 10° N visible
09 Sep 4.0 06:12:36 10° SSE 06:17:25 84° ENE 06:20:02 24° N visible
10 Sep 4.0 06:27:26 10° S 06:32:06 59° WSW 06:33:50 34° NW visible
11 Sep 4.5 06:42:29 10° S 06:46:45 36° WSW 06:48:10 28° WNW visible
